RYR9GG LMML-LIEA

Flight info

Callsign RYR9GG
Flight time 1h 18m
Altitude 34000
Route GZO DCT PAN DCT CAR DCT ALG
Aircraft B738/M-SDE2E3FGHIRWXY/LB1

Departure

Time 2026-05-05 12:09
Airport Malta International Airport (LMML)

Arrival

Time 2026-05-05 13:28
Airport Alghero-Fertilia Airport (LIEA)
Time Latitude Longitude Altitude Speed Heading
2026-05-05 11:48 35.84716 14.49409 258 ft 0 kts 224°
2026-05-05 12:04 35.84716 14.49408 258 ft 1 kts 224°
2026-05-05 12:04 35.84705 14.49395 258 ft 4 kts 224°
2026-05-05 12:04 35.84698 14.49356 258 ft 6 kts 300°
2026-05-05 12:05 35.84738 14.49303 258 ft 11 kts 314°
2026-05-05 12:05 35.84798 14.49227 258 ft 14 kts 315°
2026-05-05 12:05 35.84879 14.49128 258 ft 18 kts 314°
2026-05-05 12:05 35.84959 14.49009 257 ft 18 kts 300°
2026-05-05 12:06 35.84999 14.48865 258 ft 17 kts 285°
2026-05-05 12:06 35.85032 14.48723 262 ft 17 kts 290°
2026-05-05 12:06 35.85081 14.48595 267 ft 16 kts 304°
2026-05-05 12:06 35.85150 14.48490 271 ft 17 kts 313°
2026-05-05 12:07 35.85243 14.48373 271 ft 21 kts 315°
2026-05-05 12:07 35.85356 14.48233 271 ft 25 kts 314°
2026-05-05 12:07 35.85496 14.48093 271 ft 26 kts 332°
2026-05-05 12:07 35.85641 14.48027 271 ft 14 kts 341°
2026-05-05 12:08 35.85651 14.47933 271 ft 14 kts 219°
2026-05-05 12:08 35.85575 14.47961 271 ft 12 kts 134°
2026-05-05 12:08 35.85389 14.48190 271 ft 70 kts 135°
2026-05-05 12:08 35.84878 14.48826 258 ft 137 kts 135°
2026-05-05 12:09 35.84122 14.49748 605 ft 162 kts 135°
2026-05-05 12:09 35.83331 14.50832 1274 ft 175 kts 134°
2026-05-05 12:09 35.82328 14.51615 2178 ft 174 kts 171°
2026-05-05 12:09 35.81135 14.51386 3116 ft 179 kts 211°
2026-05-05 12:10 35.80367 14.50238 4113 ft 180 kts 244°
2026-05-05 12:10 35.79794 14.48756 4599 ft 203 kts 243°
2026-05-05 12:10 35.79124 14.47087 4811 ft 230 kts 242°
2026-05-05 12:10 35.78328 14.45285 5143 ft 247 kts 240°
2026-05-05 12:11 35.77456 14.43435 5703 ft 252 kts 239°
2026-05-05 12:11 35.76560 14.41591 6332 ft 255 kts 239°
2026-05-05 12:11 35.75838 14.39598 6973 ft 257 kts 256°
2026-05-05 12:11 35.75719 14.37415 7648 ft 257 kts 277°
2026-05-05 12:12 35.76241 14.35317 8276 ft 260 kts 298°
2026-05-05 12:12 35.77381 14.33574 8820 ft 269 kts 319°
2026-05-05 12:12 35.79059 14.32373 9229 ft 287 kts 336°
2026-05-05 12:12 35.80932 14.31447 10049 ft 291 kts 338°
2026-05-05 12:13 35.82845 14.30549 10672 ft 303 kts 338°
2026-05-05 12:13 35.84902 14.29582 10865 ft 329 kts 337°
2026-05-05 12:13 35.87111 14.28533 11071 ft 351 kts 337°
2026-05-05 12:13 35.89437 14.27421 11585 ft 362 kts 337°
2026-05-05 12:14 35.91793 14.26287 12369 ft 363 kts 336°
2026-05-05 12:14 35.94150 14.25147 13132 ft 366 kts 336°
2026-05-05 12:14 35.96511 14.24001 13848 ft 371 kts 336°
2026-05-05 12:14 35.98922 14.22828 14497 ft 374 kts 336°
2026-05-05 12:15 36.01337 14.21622 15189 ft 375 kts 332°
2026-05-05 12:15 36.03445 14.19764 15860 ft 373 kts 312°
2026-05-05 12:15 36.04970 14.17198 16568 ft 372 kts 296°
2026-05-05 12:15 36.06074 14.14302 17250 ft 374 kts 293°
2026-05-05 12:16 36.07123 14.11342 17870 ft 377 kts 292°
2026-05-05 12:16 36.08162 14.08347 18481 ft 380 kts 292°
2026-05-05 12:16 36.09210 14.05328 19018 ft 384 kts 292°
2026-05-05 12:16 36.10271 14.02293 19567 ft 386 kts 292°
2026-05-05 12:17 36.11347 13.99235 20095 ft 390 kts 292°
2026-05-05 12:17 36.12438 13.96153 20645 ft 393 kts 292°
2026-05-05 12:17 36.13540 13.93051 21164 ft 395 kts 292°
2026-05-05 12:17 36.14653 13.89920 21688 ft 398 kts 292°
2026-05-05 12:18 36.15773 13.86774 22169 ft 402 kts 292°
2026-05-05 12:18 36.16902 13.83599 22656 ft 405 kts 292°
2026-05-05 12:18 36.18040 13.80399 23145 ft 408 kts 292°
2026-05-05 12:18 36.19185 13.77175 23609 ft 411 kts 292°
2026-05-05 12:19 36.20337 13.73927 24013 ft 413 kts 292°
2026-05-05 12:19 36.21496 13.70657 24441 ft 415 kts 292°
2026-05-05 12:19 36.22655 13.67381 24853 ft 416 kts 292°
2026-05-05 12:19 36.23821 13.64086 25250 ft 418 kts 292°
2026-05-05 12:20 36.24989 13.60780 25646 ft 420 kts 292°
2026-05-05 12:20 36.26165 13.57446 26025 ft 422 kts 292°
2026-05-05 12:20 36.27343 13.54102 26409 ft 424 kts 292°
2026-05-05 12:20 36.28528 13.50737 26773 ft 426 kts 292°
2026-05-05 12:21 36.29714 13.47363 27134 ft 428 kts 292°
2026-05-05 12:21 36.30908 13.43964 27487 ft 430 kts 292°
2026-05-05 12:21 36.32103 13.40558 27840 ft 432 kts 292°
2026-05-05 12:21 36.33288 13.37177 28163 ft 434 kts 292°
2026-05-05 12:22 36.34494 13.33732 28494 ft 436 kts 292°
2026-05-05 12:22 36.35703 13.30274 28834 ft 438 kts 292°
2026-05-05 12:22 36.36916 13.26803 29140 ft 440 kts 292°
2026-05-05 12:22 36.38132 13.23319 29458 ft 441 kts 292°
2026-05-05 12:23 36.39350 13.19822 29864 ft 440 kts 292°
2026-05-05 12:23 36.40563 13.16339 30360 ft 437 kts 292°
2026-05-05 12:23 36.41762 13.12890 30813 ft 434 kts 292°
2026-05-05 12:23 36.42956 13.09456 31203 ft 433 kts 292°
2026-05-05 12:24 36.44146 13.06024 31541 ft 432 kts 292°
2026-05-05 12:24 36.44933 13.03752 31769 ft 431 kts 292°
2026-05-05 12:24 36.46115 13.00338 32158 ft 429 kts 292°
2026-05-05 12:24 36.47292 12.96936 32554 ft 427 kts 292°
2026-05-05 12:25 36.48461 12.93551 32917 ft 426 kts 292°
2026-05-05 12:25 36.49629 12.90168 33266 ft 425 kts 292°
2026-05-05 12:25 36.50791 12.86797 33602 ft 424 kts 291°
2026-05-05 12:25 36.51949 12.83434 33959 ft 423 kts 291°
2026-05-05 12:26 36.53106 12.80069 34069 ft 426 kts 291°
2026-05-05 12:26 36.54270 12.76681 34089 ft 426 kts 291°
2026-05-05 12:26 36.56582 12.69940 34083 ft 422 kts 291°
2026-05-05 12:27 36.58877 12.63235 34085 ft 420 kts 291°
2026-05-05 12:27 36.61143 12.56598 34085 ft 419 kts 291°
2026-05-05 12:28 36.63415 12.49928 34073 ft 418 kts 291°
2026-05-05 12:28 36.65683 12.43256 34084 ft 419 kts 291°
2026-05-05 12:29 36.67954 12.36560 34083 ft 420 kts 291°
2026-05-05 12:29 36.70226 12.29846 34082 ft 421 kts 291°
2026-05-05 12:30 36.72501 12.23108 34068 ft 423 kts 291°
2026-05-05 12:30 36.74780 12.16341 34080 ft 424 kts 291°
2026-05-05 12:31 36.77047 12.09596 34072 ft 425 kts 291°
2026-05-05 12:31 36.79334 12.02780 34068 ft 426 kts 291°
2026-05-05 12:32 36.82313 11.96373 34075 ft 431 kts 306°
2026-05-05 12:32 36.86588 11.91077 34086 ft 435 kts 317°
2026-05-05 12:33 36.91293 11.86297 34091 ft 436 kts 318°
2026-05-05 12:33 36.96015 11.81521 34074 ft 436 kts 317°
2026-05-05 12:34 37.00703 11.76720 34069 ft 436 kts 317°
2026-05-05 12:34 37.05358 11.71917 34054 ft 429 kts 317°
2026-05-05 12:35 37.09895 11.67220 34065 ft 424 kts 317°
2026-05-05 12:35 37.14439 11.62504 34068 ft 423 kts 317°
2026-05-05 12:36 37.18971 11.57793 34062 ft 423 kts 317°
2026-05-05 12:36 37.23498 11.53082 34063 ft 422 kts 317°
2026-05-05 12:37 37.28020 11.48368 34058 ft 422 kts 317°
2026-05-05 12:37 37.32534 11.43655 34057 ft 422 kts 317°
2026-05-05 12:38 37.37024 11.38961 34056 ft 422 kts 317°
2026-05-05 12:38 37.41532 11.34239 34054 ft 422 kts 316°
2026-05-05 12:39 37.46038 11.29512 34050 ft 421 kts 316°
2026-05-05 12:39 37.50534 11.24788 34048 ft 421 kts 316°
2026-05-05 12:40 37.55024 11.20062 34049 ft 420 kts 316°
2026-05-05 12:40 37.59504 11.15340 34047 ft 419 kts 316°
2026-05-05 12:41 37.63975 11.10618 34050 ft 419 kts 316°
2026-05-05 12:41 37.68439 11.05897 34036 ft 419 kts 316°
2026-05-05 12:42 37.72900 11.01171 34048 ft 419 kts 316°
2026-05-05 12:42 37.77368 10.96430 34039 ft 420 kts 316°
2026-05-05 12:43 37.81842 10.91674 34039 ft 420 kts 316°
2026-05-05 12:43 37.86307 10.86923 34029 ft 419 kts 316°
2026-05-05 12:44 37.90763 10.82172 34034 ft 418 kts 315°
2026-05-05 12:44 37.95200 10.77433 34028 ft 417 kts 315°
2026-05-05 12:45 37.99619 10.72704 34041 ft 421 kts 315°
2026-05-05 12:45 38.04106 10.67894 34033 ft 424 kts 315°
2026-05-05 12:46 38.08624 10.63044 34028 ft 426 kts 315°
2026-05-05 12:46 38.13160 10.58169 34022 ft 427 kts 315°
2026-05-05 12:47 38.17696 10.53285 34016 ft 427 kts 315°
2026-05-05 12:47 38.22217 10.48409 34014 ft 426 kts 315°
2026-05-05 12:48 38.26728 10.43535 34017 ft 425 kts 315°
2026-05-05 12:48 38.31218 10.38675 34010 ft 423 kts 315°
2026-05-05 12:49 38.35695 10.33821 34011 ft 422 kts 315°
2026-05-05 12:49 38.40154 10.28978 34009 ft 420 kts 314°
2026-05-05 12:50 38.44601 10.24140 34010 ft 420 kts 314°
2026-05-05 12:50 38.49041 10.19301 34010 ft 420 kts 314°
2026-05-05 12:51 38.53481 10.14453 34013 ft 420 kts 314°
2026-05-05 12:51 38.57930 10.09589 34011 ft 421 kts 314°
2026-05-05 12:52 38.62379 10.04715 34013 ft 422 kts 314°
2026-05-05 12:52 38.66842 9.99819 34013 ft 423 kts 314°
2026-05-05 12:53 38.71278 9.94943 34012 ft 424 kts 314°
2026-05-05 12:53 38.75754 9.90016 34013 ft 425 kts 314°
2026-05-05 12:54 38.82477 9.82600 34017 ft 425 kts 314°
2026-05-05 12:55 38.86960 9.77643 34018 ft 425 kts 314°
2026-05-05 12:55 38.91442 9.72679 34016 ft 425 kts 314°
2026-05-05 12:56 38.95921 9.67710 34020 ft 425 kts 313°
2026-05-05 12:56 39.00379 9.62753 33481 ft 429 kts 313°
2026-05-05 12:56 39.02613 9.60269 33051 ft 422 kts 313°
2026-05-05 12:57 39.04822 9.57811 32595 ft 417 kts 313°
2026-05-05 12:57 39.07003 9.55380 32127 ft 413 kts 313°
2026-05-05 12:57 39.09167 9.52966 31678 ft 410 kts 313°
2026-05-05 12:57 39.11343 9.50611 31232 ft 409 kts 317°
2026-05-05 12:58 39.13710 9.48564 30795 ft 409 kts 321°
2026-05-05 12:58 39.16113 9.46619 30362 ft 407 kts 321°
2026-05-05 12:58 39.18518 9.44696 29880 ft 405 kts 321°
2026-05-05 12:58 39.20907 9.42784 29386 ft 402 kts 321°
2026-05-05 12:59 39.23270 9.40885 28934 ft 398 kts 321°
2026-05-05 12:59 39.25606 9.38999 28491 ft 394 kts 321°
2026-05-05 12:59 39.27912 9.37128 28042 ft 390 kts 321°
2026-05-05 13:00 39.32470 9.33411 27177 ft 383 kts 321°
2026-05-05 13:00 39.34717 9.31575 26740 ft 381 kts 321°
2026-05-05 13:01 39.41317 9.26168 25489 ft 372 kts 321°
2026-05-05 13:01 39.43498 9.24379 25060 ft 370 kts 321°
2026-05-05 13:01 39.45661 9.22603 24675 ft 366 kts 321°
2026-05-05 13:01 39.47835 9.20817 24251 ft 365 kts 321°
2026-05-05 13:02 39.49971 9.19059 23848 ft 363 kts 321°
2026-05-05 13:02 39.52066 9.17335 23421 ft 361 kts 321°
2026-05-05 13:02 39.54181 9.15594 22952 ft 359 kts 321°
2026-05-05 13:02 39.56280 9.13864 22531 ft 356 kts 322°
2026-05-05 13:03 39.58365 9.12145 22116 ft 354 kts 322°
2026-05-05 13:03 39.60436 9.10437 21696 ft 351 kts 322°
2026-05-05 13:03 39.62491 9.08739 21289 ft 349 kts 322°
2026-05-05 13:03 39.64536 9.07050 20887 ft 348 kts 322°
2026-05-05 13:04 39.66568 9.05369 20493 ft 346 kts 322°
2026-05-05 13:04 39.68597 9.03689 20090 ft 344 kts 323°
2026-05-05 13:04 39.70613 9.02020 19704 ft 343 kts 323°
2026-05-05 13:04 39.72623 9.00354 19322 ft 342 kts 323°
2026-05-05 13:05 39.74624 8.98693 18925 ft 342 kts 323°
2026-05-05 13:05 39.76630 8.97029 18534 ft 342 kts 324°
2026-05-05 13:05 39.78642 8.95357 18084 ft 343 kts 324°
2026-05-05 13:05 39.80648 8.93691 17664 ft 342 kts 324°
2026-05-05 13:06 39.82648 8.92028 17254 ft 340 kts 324°
2026-05-05 13:06 39.84637 8.90375 16846 ft 339 kts 324°
2026-05-05 13:06 39.86616 8.88727 16463 ft 337 kts 324°
2026-05-05 13:06 39.88588 8.87085 16079 ft 335 kts 324°
2026-05-05 13:07 39.90545 8.85453 15686 ft 334 kts 324°
2026-05-05 13:07 39.92495 8.83826 15308 ft 332 kts 324°
2026-05-05 13:07 39.94435 8.82207 14937 ft 330 kts 324°
2026-05-05 13:07 39.96372 8.80589 14550 ft 330 kts 324°
2026-05-05 13:08 39.98299 8.78977 14179 ft 329 kts 323°
2026-05-05 13:08 40.00200 8.77385 13771 ft 329 kts 324°
2026-05-05 13:08 40.02149 8.75754 13359 ft 328 kts 323°
2026-05-05 13:08 40.04068 8.74146 12948 ft 327 kts 323°
2026-05-05 13:09 40.05954 8.72565 12561 ft 326 kts 323°
2026-05-05 13:09 40.07854 8.70972 12181 ft 324 kts 323°
2026-05-05 13:09 40.09747 8.69382 11802 ft 323 kts 323°
2026-05-05 13:09 40.11636 8.67795 11424 ft 322 kts 323°
2026-05-05 13:10 40.13515 8.66215 11050 ft 321 kts 323°
2026-05-05 13:10 40.15389 8.64639 10675 ft 320 kts 323°
2026-05-05 13:10 40.17246 8.63077 10465 ft 313 kts 323°
2026-05-05 13:10 40.19049 8.61562 10309 ft 304 kts 323°
2026-05-05 13:11 40.20804 8.60085 10174 ft 296 kts 323°
2026-05-05 13:11 40.22511 8.58648 10053 ft 288 kts 323°
2026-05-05 13:11 40.24182 8.57237 9797 ft 285 kts 323°
2026-05-05 13:11 40.25843 8.55832 9494 ft 283 kts 323°
2026-05-05 13:12 40.27494 8.54436 9204 ft 282 kts 323°
2026-05-05 13:12 40.29139 8.53044 8910 ft 281 kts 323°
2026-05-05 13:12 40.30777 8.51657 8622 ft 280 kts 323°
2026-05-05 13:12 40.32405 8.50278 8325 ft 279 kts 323°
2026-05-05 13:13 40.34030 8.48903 8076 ft 276 kts 323°
2026-05-05 13:13 40.35616 8.47559 7820 ft 274 kts 323°
2026-05-05 13:13 40.37216 8.46202 7568 ft 273 kts 323°
2026-05-05 13:13 40.38807 8.44852 7333 ft 272 kts 323°
2026-05-05 13:14 40.40419 8.43482 7117 ft 284 kts 323°
2026-05-05 13:14 40.42102 8.42048 6905 ft 292 kts 324°
2026-05-05 13:14 40.43794 8.40611 6770 ft 285 kts 324°
2026-05-05 13:14 40.45429 8.39225 6698 ft 276 kts 323°
2026-05-05 13:15 40.47037 8.37857 6483 ft 274 kts 323°
2026-05-05 13:15 40.48630 8.36501 6225 ft 272 kts 324°
2026-05-05 13:15 40.50210 8.35155 5974 ft 269 kts 324°
2026-05-05 13:15 40.51251 8.34268 5811 ft 268 kts 324°
2026-05-05 13:16 40.52819 8.32931 5561 ft 268 kts 324°
2026-05-05 13:16 40.54380 8.31599 5312 ft 267 kts 324°
2026-05-05 13:16 40.55932 8.30274 5060 ft 265 kts 324°
2026-05-05 13:16 40.57476 8.28955 4827 ft 265 kts 324°
2026-05-05 13:17 40.59021 8.27635 4569 ft 264 kts 324°
2026-05-05 13:17 40.60562 8.26318 4325 ft 264 kts 324°
2026-05-05 13:17 40.62235 8.25335 4020 ft 268 kts 349°
2026-05-05 13:17 40.64075 8.25534 3797 ft 267 kts 19°
2026-05-05 13:18 40.65738 8.26609 3572 ft 266 kts 31°
2026-05-05 13:18 40.67317 8.27887 3320 ft 267 kts 33°
2026-05-05 13:18 40.68883 8.29200 3099 ft 268 kts 33°
2026-05-05 13:18 40.70444 8.30506 3015 ft 265 kts 33°
2026-05-05 13:19 40.72002 8.31796 2999 ft 263 kts 33°
2026-05-05 13:19 40.73555 8.33073 2990 ft 263 kts 33°
2026-05-05 13:19 40.75109 8.34343 2997 ft 264 kts 32°
2026-05-05 13:19 40.76669 8.35616 3003 ft 265 kts 32°
2026-05-05 13:20 40.78243 8.36897 2995 ft 265 kts 32°
2026-05-05 13:20 40.79798 8.38158 2983 ft 257 kts 32°
2026-05-05 13:20 40.81292 8.39372 2963 ft 246 kts 32°
2026-05-05 13:20 40.82721 8.40534 2979 ft 237 kts 32°
2026-05-05 13:21 40.84112 8.41663 2985 ft 233 kts 31°
2026-05-05 13:21 40.85331 8.42986 2965 ft 223 kts 62°
2026-05-05 13:21 40.85654 8.44867 2989 ft 216 kts 104°
2026-05-05 13:21 40.84946 8.46554 2993 ft 211 kts 146°
2026-05-05 13:22 40.83649 8.47111 2994 ft 192 kts 188°
2026-05-05 13:22 40.82552 8.46306 2987 ft 184 kts 234°
2026-05-05 13:22 40.82220 8.44680 3011 ft 185 kts 261°
2026-05-05 13:22 40.81832 8.43123 2995 ft 173 kts 237°
2026-05-05 13:23 40.81161 8.41832 2981 ft 171 kts 229°
2026-05-05 13:23 40.80356 8.40689 2988 ft 170 kts 222°
2026-05-05 13:23 40.79484 8.39646 2999 ft 170 kts 219°
2026-05-05 13:23 40.78535 8.38722 2995 ft 169 kts 212°
2026-05-05 13:24 40.77535 8.37904 2893 ft 169 kts 210°
2026-05-05 13:24 40.76514 8.37145 2679 ft 167 kts 207°
2026-05-05 13:24 40.75485 8.36483 2492 ft 164 kts 205°
2026-05-05 13:24 40.74443 8.35846 2264 ft 166 kts 204°
2026-05-05 13:25 40.73395 8.35216 2049 ft 164 kts 205°
2026-05-05 13:25 40.72370 8.34617 1897 ft 161 kts 205°
2026-05-05 13:25 40.71350 8.33995 1678 ft 165 kts 205°
2026-05-05 13:25 40.70300 8.33355 1417 ft 167 kts 206°
2026-05-05 13:26 40.69245 8.32717 1131 ft 165 kts 206°
2026-05-05 13:26 40.68208 8.32079 917 ft 163 kts 205°
2026-05-05 13:26 40.67184 8.31457 746 ft 160 kts 202°
2026-05-05 13:26 40.66173 8.30856 516 ft 158 kts 205°
2026-05-05 13:27 40.65183 8.30269 265 ft 153 kts 204°
2026-05-05 13:27 40.64275 8.29712 109 ft 137 kts 203°
2026-05-05 13:27 40.63507 8.29263 89 ft 104 kts 206°
2026-05-05 13:27 40.62989 8.28943 88 ft 60 kts 205°
2026-05-05 13:28 40.62738 8.28832 82 ft 20 kts 179°
2026-05-05 13:28 40.62616 8.28855 85 ft 15 kts 149°
2026-05-05 13:28 40.62600 8.28929 81 ft 9 kts 67°
2026-05-05 13:28 40.62641 8.28980 83 ft 9 kts 33°
2026-05-05 13:29 40.62703 8.29018 84 ft 10 kts 23°
2026-05-05 13:29 40.62770 8.29059 85 ft 12 kts 24°
2026-05-05 13:29 40.62839 8.29130 85 ft 14 kts 69°
2026-05-05 13:29 40.62879 8.29256 86 ft 15 kts 49°
2026-05-05 13:30 40.62957 8.29310 86 ft 11 kts 24°
2026-05-05 13:30 40.63014 8.29355 87 ft 8 kts 61°
2026-05-05 13:30 40.63005 8.29414 88 ft 4 kts 111°
2026-05-05 13:30 40.63001 8.29426 89 ft 0 kts 112°